Flag for Iran Weather past 2 weeks in Behbahan, Iran

Now
84 °F

Clear.


Feels Like: 83 °F
Forecast: 66 / 107 °F
Wind: No wind

Location: Gach Saran Du Gunbadan

Current Time: Sep 17, 2014 at 2:54:36 AM

Latest Report: Sep 16, 2014 at 11:30 PM


Visibility: 10 mi

Pressure: 29.80 "Hg

Humidity: 35%

Dew point: 54 °F

Location of BehbahanLocation

Historic Weather in Behbahan — Graph

°F

Behbahan temperature yesterday

Maximum temperature yesterday: 100 °F (at 3:30 PM)
Minimum temperature yesterday: 70 °F (at 6:30 AM)
Average temperature yesterday: 85 °F

Past Weeks' High & Low Weather Summary

 TemperatureHumidityPressure
High108 °F (Sep 3, 3:30 PM)57% (Sep 2, 7:30 AM)29.86 "Hg (Sep 2, 7:30 AM)
Low68 °F (Sep 12, 6:30 AM)1% (Sep 13, 4:30 PM)29.62 "Hg (Sep 5, 3:30 PM)
Average91 °F20%29.75 "Hg
* Reported Sep 1 11:30 PM — Sep 16 11:30 PM, Behbahan, Weather by CustomWeather, © 2014

Note: Actual official high and low records may vary slightly from our data, if they occured in-between our weather recording intervals... More about our weather records

Advertising

Behbahan weather history for previous 24 hours

 ConditionsComfort  
Time TempWeatherWind HumidityBarometerVisibility
11:30 PM
Sep 16
84 °FClear.No wind35%29.80 "Hg10 mi
10:30 PM86 °FClear.No wind33%29.80 "Hg10 mi
9:30 PM88 °FClear.No wind29%29.80 "Hg10 mi
8:30 PM90 °FSunny.No wind27%29.80 "Hg10 mi
6:30 PM97 °FSunny.12 mph7%29.74 "Hg10 mi
5:30 PM97 °FPassing clouds.14 mph8%29.74 "HgN/A
3:30 PM100 °FSunny.16 mph6%29.77 "Hg10 mi
12:30 PM97 °FSunny.12 mph12%29.80 "Hg10 mi
11:30 AM93 °FSunny.No wind16%29.80 "Hg10 mi
10:30 AM91 °FSunny.No wind21%29.80 "Hg10 mi
9:30 AM84 °FSunny.No wind27%29.83 "Hg10 mi
8:30 AM77 °FSunny.No wind34%29.80 "Hg10 mi
7:30 AM72 °FClear.No wind33%29.80 "Hg10 mi
6:30 AM70 °FClear.No wind31%29.77 "Hg10 mi
5:30 AM72 °FClear.No wind31%29.77 "Hg10 mi
4:30 AM73 °FClear.No wind29%29.77 "Hg10 mi
2:30 AM77 °FClear.No wind28%29.68 "Hg10 mi
Weather by CustomWeather, © 2014

See weather overviewHow to use our weather pages